Hyannis, MA

9:59 AM EDT on July 28, 2017 (GMT -0400)
Barnstable Municipal-Boardman-Polando Field

Weather History for KHYA - November, 2014

Change the Weather History Date:

Saturday, November 8, 2014

  Actual Average Record
Temperature  
Mean Temperature 42 °F -  
Max Temperature 50 °F 52 °F 68 °F (1938)
Min Temperature 36 °F 36 °F 21 °F (1967)
Degree Days  
Heating Degree Days 23    
Moisture  
Dew Point 30 °F    
Average Humidity 61    
Maximum Humidity 73    
Minimum Humidity 45    
Precipitation  
Precipitation 0.00 in - - ()
Sea Level Pressure  
Sea Level Pressure 29.92 in    
Wind  
Wind Speed 9 mph (WSW)    
Max Wind Speed 15 mph    
Max Gust Speed 22 mph    
Visibility 10 miles    
Events      
Averages and records for this station are not official NWS values.
T = Trace of Precipitation, MM = Missing Value Source: NWS Daily Summary

Daily Weather History Graph

Daily Weather History Graph

Search for Another Location

Airport or City:

Trip Planner

Search our weather history database for the weather conditions in past years. The results will help you decide how hot, cold, wet, or windy it might be!

Date:

Astronomy

Nov. 08, 2014 Rise Set
Actual Time 6:21 AM EST 4:27 PM EST
Civil Twilight 5:52 AM EST 4:56 PM EST
Nautical Twilight 5:19 AM EST 5:30 PM EST
Astronomical Twilight 4:46 AM EST 6:02 PM EST
Moon 6:05 PM EST (11/8) 7:55 AM EST (11/8)
Length of Visible Light 11h 04m
Length of Day
10h 05m
Waning Gibbous, 96% of the Moon is Illuminated
Nov 8
Waning Gibbous
Nov 14
Last Quarter
Nov 22
New
Nov 29
First Quarter
Dec 6
Full

Hourly Weather History & Observations

Time (EST) Temp. Windchill Dew Point Humidity Pressure Visibility Wind Dir Wind Speed Gust Speed Precip Events Conditions
12:56 AM 39.0 °F 34.0 °F 27.0 °F 62% 29.80 in 10.0 mi West 6.9 mph - N/A   Clear
1:56 AM 37.0 °F 32.4 °F 27.0 °F 67% 29.82 in 10.0 mi West 5.8 mph - N/A   Clear
2:56 AM 37.0 °F 31.0 °F 26.1 °F 65% 29.84 in 10.0 mi West 8.1 mph - N/A   Clear
3:56 AM 36.0 °F 32.1 °F 27.0 °F 70% 29.87 in 10.0 mi WSW 4.6 mph - N/A   Partly Cloudy
4:56 AM 37.0 °F 30.4 °F 28.0 °F 70% 29.90 in 10.0 mi West 9.2 mph - N/A   Scattered Clouds
5:56 AM 36.0 °F 28.5 °F 25.0 °F 64% 29.92 in 10.0 mi West 10.4 mph - N/A   Clear
6:56 AM 36.0 °F 29.0 °F 25.0 °F 64% 29.94 in 10.0 mi West 9.2 mph - N/A   Clear
7:56 AM 39.0 °F 32.8 °F 24.1 °F 55% 29.96 in 10.0 mi West 9.2 mph - N/A   Clear
8:56 AM 41.0 °F 34.3 °F 21.9 °F 47% 29.96 in 10.0 mi West 11.5 mph - N/A   Clear
9:56 AM 43.0 °F 36.0 °F 23.0 °F 45% 29.96 in 10.0 mi West 13.8 mph 18.4 mph N/A   Clear
10:56 AM 44.1 °F 39.5 °F 24.1 °F 45% 29.96 in 10.0 mi WNW 8.1 mph - N/A   Clear
11:56 AM 45.0 °F 39.7 °F 27.0 °F 49% 29.94 in 10.0 mi SSW 10.4 mph - N/A   Clear
12:56 PM 45.0 °F 38.9 °F 28.0 °F 52% 29.93 in 10.0 mi SW 12.7 mph - N/A   Clear
1:56 PM 46.0 °F 39.6 °F 30.0 °F 54% 29.92 in 10.0 mi SW 15.0 mph - N/A   Clear
2:56 PM 46.9 °F - 28.9 °F 50% 29.92 in 10.0 mi WSW 15.0 mph - N/A   Clear
3:56 PM 46.0 °F 39.9 °F 33.1 °F 61% 29.92 in 10.0 mi WSW 13.8 mph - N/A   Clear
4:56 PM 45.0 °F 40.6 °F 34.0 °F 65% 29.92 in 10.0 mi WSW 8.1 mph - N/A   Mostly Cloudy
5:03 PM 45.0 °F 40.6 °F 34.0 °F 65% 29.92 in 10.0 mi WSW 8.1 mph - N/A   Mostly Cloudy
5:36 PM 45.0 °F 40.1 °F 35.1 °F 68% 29.93 in 10.0 mi WSW 9.2 mph - N/A   Scattered Clouds
5:56 PM 45.0 °F 40.1 °F 35.1 °F 68% 29.94 in 10.0 mi SW 9.2 mph - N/A   Scattered Clouds
6:56 PM 44.1 °F 39.5 °F 36.0 °F 73% 29.94 in 10.0 mi SW 8.1 mph - N/A   Scattered Clouds
7:56 PM 46.9 °F - 36.0 °F 66% 29.93 in 10.0 mi SW 12.7 mph - N/A   Clear
8:56 PM 48.0 °F - 37.0 °F 66% 29.92 in 10.0 mi SW 15.0 mph 21.9 mph N/A   Partly Cloudy
9:56 PM 48.9 °F - 37.0 °F 64% 29.93 in 10.0 mi SW 15.0 mph - N/A   Mostly Cloudy
10:56 PM 48.9 °F - 37.9 °F 66% 29.94 in 10.0 mi SW 13.8 mph - N/A   Scattered Clouds
11:56 PM 50.0 °F - 39.0 °F 66% 29.93 in 10.0 mi SW 12.7 mph - N/A   Mostly Cloudy